DW3738 Weather Reports


time (UTC)temp
C
wind
direction
speed
KPH
gust
KPH
rain 1hr
cm
rain 24hr
cm
rain mn
cm
humidity
%
barometer
mb
20260508164528 21 294 1.6 0.0 0.00 0.00 0.03 40 1017.2
20260508163025 20 116 3.2 0.0 0.00 0.00 0.03 44 1017.3
20260508161529 20 280 3.2 0.0 0.00 0.00 0.03 40 1017.5
20260508160027 20 80 1.6 0.0 0.00 0.00 0.03 45 1017.7
20260508154516 20 355 1.6 0.0 0.00 0.00 0.03 46 1017.9
20260508153012 19 72 1.6 0.0 0.00 0.00 0.03 49 1018.0
20260508151508 19 95 1.6 0.0 0.00 0.00 0.03 52 1017.9
20260508150008 19 333 1.6 0.0 0.00 0.00 0.03 52 1018.0
20260508144500 18 57 1.6 0.0 0.00 0.00 0.03 52 1018.1
20260508143056 18 355 1.6 0.0 0.00 0.00 0.03 59 1018.1
20260508141553 17 194 1.6 0.0 0.00 0.00 0.03 63 1018.2
20260508140048 17 18 1.6 0.0 0.00 0.00 0.03 63 1018.2
20260508134543 16 330 3.2 0.0 0.00 0.00 0.03 71 1018.1
20260508133055 16 332 0.0 0.0 0.00 0.00 0.03 74 1018.1
20260508131535 15 134 0.0 0.0 0.00 0.00 0.03 81 1018.1
20260508130031 13 157 0.0 0.0 0.00 0.00 0.03 88 1017.9
20260508124528 13 22 0.0 0.0 0.00 0.00 0.03 93 1017.8
20260508123025 12 17 0.0 0.0 0.00 0.00 0.03 97 1017.6
20260508121521 11 5 0.0 0.0 0.00 0.00 0.03 99 1017.4
20260508120020 11 5 0.0 0.0 0.00 0.00 0.03 99 1017.4
20260508114517 10 5 0.0 0.0 0.00 0.00 0.03 100 1017.2
20260508113018 10 114 0.0 0.0 0.00 0.00 0.03 100 1016.8
20260508111512 9 114 0.0 0.0 0.00 0.00 0.03 99 1016.6
20260508110008 9 114 0.0 0.0 0.00 0.00 0.03 99 1016.3
20260508104506 9 114 0.0 0.0 0.00 0.00 0.03 98 1016.2
20260508103008 10 114 0.0 0.0 0.00 0.00 0.03 98 1015.7
20260508101600 10 114 0.0 0.0 0.00 0.00 0.03 99 1015.4
20260508100058 10 114 0.0 0.0 0.00 0.00 0.03 98 1015.5
20260508094606 10 114 0.0 0.0 0.00 0.00 0.03 99 1015.3
20260508093056 10 114 0.0 0.0 0.00 0.00 0.03 99 1015.1
20260508091556 11 114 0.0 0.0 0.00 0.00 0.03 99 1015.1
20260508090053 11 114 0.0 0.0 0.00 0.00 0.03 99 1014.9
20260508084551 11 114 0.0 0.0 0.00 0.00 0.00 99 1015.0
20260508083050 11 114 0.0 0.0 0.00 0.00 0.00 99 1014.7
20260508081602 11 114 0.0 0.0 0.00 0.00 0.00 99 1014.7
20260508080045 11 114 0.0 0.0 0.00 0.00 0.00 99 1014.3
20260508074544 11 114 0.0 0.0 0.00 0.00 0.00 99 1014.3
20260508073044 11 114 0.0 0.0 0.00 0.00 0.00 98 1014.3
20260508071544 11 114 0.0 0.0 0.00 0.00 0.00 99 1014.1
20260508070045 11 114 0.0 0.0 0.00 0.00 0.00 99 1014.1
20260508064541 11 114 0.0 0.0 0.00 0.00 0.00 98 1014.1
20260508063041 11 114 0.0 0.0 0.00 0.00 0.00 98 1014.0
20260508061539 11 114 0.0 0.0 0.00 0.00 0.00 97 1014.3
20260508060036 11 114 0.0 0.0 0.00 0.00 0.00 98 1014.1
20260508054541 12 114 0.0 0.0 0.00 0.00 0.00 97 1014.3
20260508053033 12 114 0.0 0.0 0.00 0.00 0.00 98 1014.0
20260508051532 12 114 0.0 0.0 0.00 0.00 0.00 98 1014.0
20260508050028 12 114 0.0 0.0 0.00 0.00 0.00 98 1013.9
20260508044527 12 114 0.0 0.0 0.00 0.00 0.00 98 1013.9
20260508043024 13 114 0.0 0.0 0.00 0.00 0.00 98 1013.6
20260508041522 13 114 0.0 0.0 0.00 0.00 0.00 97 1013.5
20260508040020 13 114 0.0 0.0 0.00 0.00 0.00 98 1013.5
20260508034519 13 114 0.0 0.0 0.00 0.00 5.13 97 1013.5
20260508033020 13 114 0.0 0.0 0.00 0.00 5.13 97 1013.2
20260508031517 13 114 0.0 0.0 0.00 0.00 5.13 97 1013.3
20260508030016 13 5 0.0 0.0 0.00 0.00 5.13 97 1013.2
20260508024513 13 5 0.0 0.0 0.00 0.00 5.13 97 1013.1
20260508023015 13 5 0.0 0.0 0.00 0.00 5.13 97 1013.0
20260508021510 13 5 0.0 0.0 0.00 0.00 5.13 96 1012.7
20260508020007 13 5 1.6 0.0 0.00 0.00 5.13 96 1012.3
20260508014505 14 21 0.0 0.0 0.00 0.00 5.13 96 1012.2
20260508013005 14 95 0.0 0.0 0.00 0.00 5.13 96 1011.9
20260508011503 15 5 1.6 0.0 0.00 0.00 5.13 96 1011.6
20260508010005 15 355 0.0 0.0 0.00 0.00 5.13 96 1011.5
20260508004501 15 346 0.0 0.0 0.00 0.00 5.13 96 1011.1
20260508003001 15 5 1.6 0.0 0.00 0.00 5.13 95 1010.8
20260508001600 15 355 1.6 0.0 0.00 0.00 5.13 95 1010.7
20260508000059 15 32 3.2 0.0 0.00 0.00 5.08 94 1010.2
20260507234604 15 72 6.4 0.0 0.00 0.00 5.00 93 1009.1
20260507233055 15 355 6.4 0.0 0.00 0.00 4.88 90 1008.6
20260507231556 16 360 6.4 0.0 0.00 0.00 4.83 84 1009.4
20260507230055 17 157 6.4 0.0 0.00 0.00 4.83 83 1008.2
20260507224550 18 300 8.0 0.0 0.00 0.00 4.83 79 1008.2
20260507223054 22 268 6.4 0.0 0.00 0.00 4.83 71 1007.3
20260507221549 25 227 4.8 0.0 0.00 0.00 4.83 68 1006.6
20260507220045 25 234 6.4 0.0 0.00 0.00 4.83 69 1006.3
20260507214544 25 244 6.4 0.0 0.00 0.00 4.83 68 1006.3
20260507213043 25 186 8.0 0.0 0.00 0.00 4.83 69 1006.0
20260507211543 25 227 4.8 0.0 0.00 0.00 4.83 70 1006.2
20260507210042 25 214 3.2 0.0 0.00 0.00 4.83 67 1006.3
20260507204541 25 209 4.8 0.0 0.00 0.00 4.83 66 1006.1
20260507203047 26 198 3.2 0.0 0.00 0.00 4.83 66 1006.4
20260507201539 25 340 4.8 0.0 0.00 0.00 4.83 67 1006.5
20260507200045 25 126 3.2 0.0 0.00 0.00 4.83 65 1006.7
20260507194532 25 231 6.4 0.0 0.00 0.00 4.83 66 1006.9
20260507193033 24 71 1.6 0.0 0.00 0.00 4.83 70 1007.3
20260507191530 24 284 3.2 0.0 0.00 0.00 4.83 71 1007.6
20260507190027 23 262 3.2 0.0 0.00 0.00 4.83 73 1007.8
20260507184524 23 49 4.8 0.0 0.00 0.00 4.83 74 1007.7
20260507183035 23 309 3.2 0.0 0.00 0.00 4.83 76 1007.6
20260507181521 23 278 3.2 0.0 0.00 0.00 4.83 78 1007.5
20260507180033 23 313 1.6 0.0 0.00 0.00 4.83 79 1007.7
20260507174519 22 273 3.2 0.0 0.00 0.00 4.83 83 1007.9
20260507173012 21 226 1.6 0.0 0.00 0.00 4.83 88 1008.3
20260507171511 21 290 3.2 0.0 0.00 0.00 4.83 88 1008.3
20260507170010 21 245 3.2 0.0 0.00 0.00 4.83 89 1008.3